Change the Weather History Date:

Saturday, October 5, 2013

  Actual Average Record
Temperature  
Mean Temperature 63 °F -  
Max Temperature 69 °F 66 °F 82 °F (2002)
Min Temperature 57 °F 50 °F 32 °F (1996)
Degree Days  
Heating Degree Days 2    
Growing Degree Days 13 (Base 50)    
Moisture  
Dew Point 58 °F    
Average Humidity 90    
Maximum Humidity 100    
Minimum Humidity 73    
Precipitation  
Precipitation 0.36 in - - ()
Sea Level Pressure  
Sea Level Pressure 30.08 in    
Wind  
Wind Speed 2 mph (NNE)    
Max Wind Speed 6 mph    
Max Gust Speed -    
Visibility 9 miles    
Events Rain    
Averages and records for this station are not official NWS values.
T = Trace of Precipitation, MM = Missing Value Source: NWS Daily Summary

Daily Weather History Graph

Daily Weather History Graph

Search for Another Location

Airport or City:

Trip Planner

Search our weather history database for the weather conditions in past years. The results will help you decide how hot, cold, wet, or windy it might be!

Date:

Astronomy

Oct. 05, 2013 Rise Set
Actual Time 6:45 AM EDT 6:18 PM EDT
Civil Twilight 6:17 AM EDT 6:46 PM EDT
Nautical Twilight 5:45 AM EDT 7:18 PM EDT
Astronomical Twilight 5:12 AM EDT 7:50 PM EDT
Moon 7:22 AM EDT (10/5) 6:34 PM EDT (10/5)
Length of Visible Light 12h 28m
Length of Day
11h 33m
New Moon, 0% of the Moon is Illuminated
Oct 5
New Moon
Oct 11
First Quarter
Oct 18
Full
Oct 26
Last Quarter
Nov 3
New

Hourly Weather History & Observations

Time (EDT) Temp. Dew Point Humidity Pressure Visibility Wind Dir Wind Speed Gust Speed Precip Events Conditions
12:53 AM 57.0 °F 55.0 °F 93% 30.06 in 8.0 mi NNE 3.5 mph - N/A   Overcast
1:53 AM 57.0 °F 55.9 °F 96% 30.06 in 8.0 mi Calm Calm - N/A   Overcast
2:53 AM 57.0 °F 55.9 °F 96% 30.06 in 10.0 mi WNW 3.5 mph - N/A   Overcast
3:53 AM 57.9 °F 55.9 °F 93% 30.05 in 10.0 mi Calm Calm - N/A   Overcast
4:53 AM 57.9 °F 55.9 °F 93% 30.05 in 10.0 mi Calm Calm - N/A   Overcast
5:10 AM 57.2 °F 55.4 °F 94% 30.05 in 10.0 mi Calm Calm - 0.00 in   Overcast
5:44 AM 57.2 °F 57.2 °F 100% 30.06 in 1.8 mi Calm Calm - 0.18 in Rain Rain
5:53 AM 57.0 °F 57.0 °F 100% 30.06 in 1.0 mi Calm Calm - 0.33 in Rain Heavy Rain
6:00 AM 57.2 °F 57.2 °F 100% 30.06 in 3.0 mi NNE 3.5 mph - 0.01 in Rain Rain
6:10 AM 57.2 °F 57.2 °F 100% 30.06 in 7.0 mi NNE 3.5 mph - 0.03 in Rain Light Rain
6:53 AM 57.9 °F 57.0 °F 97% 30.08 in 9.0 mi Calm Calm - 0.03 in   Overcast
7:53 AM 59.0 °F 57.0 °F 93% 30.08 in 10.0 mi Calm Calm - 0.00 in   Overcast
8:44 AM 60.8 °F 57.2 °F 88% 30.09 in 6.0 mi North 3.5 mph - N/A   Overcast
8:53 AM 60.1 °F 57.9 °F 93% 30.09 in 6.0 mi North 3.5 mph - N/A   Overcast
9:35 AM 60.8 °F 59.0 °F 94% 30.09 in 6.0 mi Calm Calm - N/A   Overcast
9:53 AM 62.1 °F 60.1 °F 93% 30.09 in 8.0 mi Calm Calm - N/A   Overcast
10:53 AM 64.0 °F 59.0 °F 84% 30.09 in 10.0 mi NE 3.5 mph - N/A   Overcast
11:32 AM 64.4 °F 59.0 °F 83% 30.09 in 10.0 mi North 3.5 mph - N/A   Overcast
11:53 AM 64.0 °F 60.1 °F 87% 30.09 in 10.0 mi Calm Calm - N/A   Overcast
12:51 PM 66.2 °F 59.0 °F 78% 30.07 in 10.0 mi Calm Calm - N/A   Overcast
12:53 PM 66.9 °F 59.0 °F 76% 30.08 in 10.0 mi Calm Calm - N/A   Overcast
1:53 PM 69.1 °F 61.0 °F 75% 30.06 in 10.0 mi North 3.5 mph - N/A   Overcast
2:53 PM 68.0 °F 60.1 °F 76% 30.06 in 10.0 mi Variable 3.5 mph - N/A   Overcast
3:53 PM 69.1 °F 60.1 °F 73% 30.06 in 10.0 mi NE 5.8 mph - N/A   Overcast
4:53 PM 66.9 °F 60.1 °F 79% 30.06 in 10.0 mi NE 5.8 mph - N/A   Overcast
5:53 PM 64.9 °F 59.0 °F 81% 30.07 in 10.0 mi ENE 4.6 mph - N/A   Overcast
6:51 PM 62.6 °F 59.0 °F 88% 30.08 in 10.0 mi Calm Calm - N/A   Scattered Clouds
6:53 PM 62.1 °F 59.0 °F 90% 30.08 in 10.0 mi Calm Calm - N/A   Partly Cloudy
7:53 PM 60.1 °F 57.0 °F 90% 30.09 in 10.0 mi Calm Calm - N/A   Clear
8:53 PM 59.0 °F 57.0 °F 93% 30.10 in 10.0 mi Calm Calm - N/A   Mostly Cloudy
9:53 PM 59.0 °F 57.0 °F 93% 30.12 in 10.0 mi NNE 3.5 mph - N/A   Mostly Cloudy
10:53 PM 57.9 °F 55.9 °F 93% 30.12 in 9.0 mi Calm Calm - N/A   Partly Cloudy
11:53 PM 57.9 °F 57.0 °F 97% 30.12 in 10.0 mi Calm Calm - N/A   Overcast